Location: Recife
(8.0585°S, 34.8848°W)
Time: 13:10:31
(UTC-03:00)

Vanguard 1 - Pass Details

Date: 21 April 2026
Orbit: 654 x 3817 km, 34.3° (Epoch: 11 May)

Event Time Altitude Azimuth Distance (km) Brightness Sun altitude
Rises 04:02:14 0° 326° (NW) 6,744 14.1 -20.2°
Reaches altitude 10° 04:08:49 10° 339° (NNW) 5,104 13.6 -18.6°
Maximum altitude 04:18:15 22° 23° (NNE) 3,181 13.0 -16.3°
Drops below altitude 10° 04:24:34 10° 72° (ENE) 3,299 14.1 -14.7°
Sets 04:27:37 0° 88° (E) 3,909 15.0 -14.0°
